Location: Newark
(58.8333°N, 23.5833°E)
Time: 21:49:47
(UTC+00:00)

A-11 Canister half - Pass Details

Date: 20 November 2019
Orbit: 1515 x 1685 km, 47.2° (Epoch: 08 December)

Event Time Altitude Azimuth Distance (km) Brightness Sun altitude
Rises 17:43:21 0° 240° (WSW) 4,909 12.4 -28.6°
Reaches altitude 10° 17:46:42 10° 234° (SW) 3,935 11.6 -29.1°
Maximum altitude 17:55:54 42° 169° (S) 2,273 9.6 -30.2°
Enters shadow 17:57:03 40° 154° (SSE) 2,308 9.6 -30.4°
Drops below altitude 10° 18:05:06 10° 104° (ESE) 3,935 - -31.4°
Sets 18:08:27 0° 98° (E) 4,910 - -31.8°
